Home > Weather > Kairouan > Past weeks

Flag for Tunisia Weather for the Past 2 Weeks in Kairouan, Tunisia

Now
57 °F

Clear.


Feels Like: 57 °F
Forecast: 56 / 76 °F
Wind: No wind

Location: Kairouan Airport

Current Time: Feb 10, 2016 at 6:47:24 AM

Latest Report: Feb 10, 2016 at 6:00 AM


Visibility: 10 mi

Pressure: 29.95 "Hg

Humidity: 41%

Dew point: 34 °F

Location of KairouanLocation

Historic Weather in Kairouan — Graph

°F

Kairouan Temperature Yesterday

Maximum temperature yesterday: 75 °F (at 4:00 PM)
Minimum temperature yesterday: 46 °F (at 6:00 AM)
Average temperature yesterday: 59 °F

High & Low Weather Summary for the Past Weeks

 TemperatureHumidityPressure
High75 °F (Feb 3, 3:00 PM)87% (Jan 28, 2:00 AM)30.51 "Hg (Jan 28, 2:00 AM)
Low39 °F (Jan 27, 8:00 AM)27% (Feb 7, 2:00 PM)29.95 "Hg (Feb 7, 5:00 PM)
Average57 °F55%30.33 "Hg
* Reported Jan 26 5:00 AM — Feb 10 5:00 AM, Kairouan, Weather by CustomWeather, © 2016

Note: Actual official high and low records may vary slightly from our data, if they occured in-between our weather recording intervals... More about our weather records

Advertising

Kairouan Weather History for the Previous 24 Hours

 ConditionsComfort  
Time TempWeatherWind HumidityBarometerVisibility
5:00 AM
Wed, Feb 10
59 °FClear.No wind39%29.95 "Hg10 mi
3:00 AM61 °FClear.No wind36%29.95 "Hg10 mi
2:00 AM63 °FClear.1 mph34%29.98 "Hg10 mi
1:00 AM61 °FClear.No wind36%30.01 "Hg10 mi
12:00 AM61 °FClear.5 mph39%30.01 "Hg10 mi
11:00 PM
Tue, Feb 9
61 °FClear.2 mph39%30.04 "Hg10 mi
10:00 PM63 °FClear.No wind39%30.04 "Hg10 mi
9:00 PM64 °FClear.No wind37%30.04 "Hg10 mi
8:00 PM66 °FClear.6 mph37%30.07 "Hg10 mi
7:00 PM66 °FClear.No wind37%30.04 "Hg10 mi
6:00 PM68 °FClear.No wind38%30.07 "Hg10 mi
5:00 PM72 °FSunny.No wind33%30.07 "Hg10 mi
4:00 PM75 °FSunny.2 mph29%30.09 "Hg10 mi
3:00 PM73 °FSunny.2 mph29%30.12 "Hg10 mi
2:00 PM72 °FSunny.No wind29%30.15 "Hg10 mi
1:00 PM68 °FSunny.No wind35%30.21 "Hg10 mi
12:00 PM64 °FPassing clouds.5 mph34%30.24 "HgN/A
11:00 AM61 °FPassing clouds.5 mph42%30.30 "HgN/A
10:00 AM57 °FPassing clouds.7 mph51%30.30 "HgN/A
9:00 AM52 °FPassing clouds.3 mph58%30.30 "HgN/A
8:00 AM48 °FPassing clouds.5 mph66%30.30 "HgN/A
7:00 AM48 °FPassing clouds.2 mph66%30.30 "HgN/A
6:00 AM46 °FPassing clouds.2 mph71%30.30 "HgN/A
Weather by CustomWeather, © 2016

See weather overviewHow to use our weather pages